Regional Weather Roundup
Issued by NWS

Home | Current Version | Previous Version | Graphics & Text | Print | Product List | Glossary On
Versions: 1 2 3 4 5 6 7 8 9 10 11 12 13 14 15 16 17 18 19 20 21 22 23 24 25 26 27 28 29 30 31 32 33 34 35 36 37 38 39 40 41 42 43 44 45 46 47 48 49 50
000
ASUS43 KOAX 210902
RWRNE

WEATHER ROUNDUP FOR NEBRASKA
NATIONAL WEATHER SERVICE OMAHA NE
300 AM CST SUN DEC 21 2014

NOTES: SATELLITE DATA IS BEING USED TO AUGMENT CLOUD COVER ABOVE
       12000 FEET.
       "FAIR" INDICATES FEW OR NO CLOUDS BELOW 12,000 FEET WITH NO
       SIGNIFICANT WEATHER AND/OR OBSTRUCTIONS TO VISIBILITY.

  * THESE STATIONS DO NOT REPORT WEATHER SUCH AS RAIN...SNOW OR FOG.

NEZ001>004-019>022-054>056-211000-
NEBRASKA PANHANDLE

CITY           SKY/WX    TMP DP  RH WIND       PRES   REMARKS
SCOTTSBLUFF    CLEAR     24  19  81 CALM      29.81F
ALLIANCE       CLEAR     30  24  78 SW13      29.80S WCI  20
CHADRON        CLEAR     25  22  88 SW5       29.76F WCI  19
SIDNEY         CLOUDY    32  26  78 W3        29.86F
$$

NEZ057>060-069>072-079>082-211000-
SOUTHWEST NEBRASKA

CITY           SKY/WX    TMP DP  RH WIND       PRES   REMARKS
NORTH PLATTE   MOCLDY    25  23  92 W3        29.87F
IMPERIAL       CLOUDY    35  26  69 W7        29.86F WCI  29
MCCOOK         CLOUDY    30  26  85 SW8       29.88F WCI  22
$$

NEZ005>010-023>029-035>040-094-211000-
NORTH CENTRAL NEBRASKA

CITY           SKY/WX    TMP DP  RH WIND       PRES   REMARKS
VALENTINE      CLOUDY    27  23  85 CALM      29.80F
BROKEN BOW     PTCLDY    29  25  85 CALM      29.85F
$$

NEZ041-046>049-061>064-073>077-083>087-211000-
SOUTH CENTRAL NEBRASKA

CITY           SKY/WX    TMP DP  RH WIND       PRES   REMARKS
GRAND ISLAND   FOG       25  25 100 S5        29.89F VSB 1/4 WCI  19
HASTINGS       PTCLDY    32  30  92 S6        29.89F WCI  26
KEARNEY *      MOCLDY    30  27  86 SW7       29.88F WCI  23
$$

NEZ011>018-030>034-042>045-211000-
NORTHEAST NEBRASKA

CITY           SKY/WX    TMP DP  RH WIND       PRES   REMARKS
NORFOLK        FOG       33  33 100 S10       29.88F VSB 3/4 WCI  25
COLUMBUS *     CLOUDY    36  32  87 S9        29.91F VSB 1/2 WCI  29
TEKAMAH        CLOUDY    35  34  96 SE10      29.94F FOG     WCI  27
$$

NEZ050>053-065>068-078-088>093-211000-
SOUTHEAST NEBRASKA

CITY           SKY/WX    TMP DP  RH WIND       PRES   REMARKS
LINCOLN        CLOUDY    37  35  92 S9        29.96F WCI  30
OMAHA EPPLEY   CLOUDY    36  35  96 S12       29.99S FOG     WCI  28
FALLS CITY     CLOUDY    35  33  92 S8        30.03F WCI  29
$$

NEZ044-045-051>053-067-211000-
OMAHA AREA

CITY           SKY/WX    TMP DP  RH WIND       PRES   REMARKS
OMAHA EPPLEY   CLOUDY    36  35  96 S12       29.99S FOG     WCI  28
OFFUTT AFB     CLOUDY    35  33  96 SE5       29.97F FOG     WCI  30
$$


USA.gov is the U.S. government's official web portal to all federal, state and local government web resources and services.